POLAR BEAR

Last updated on Fri Jun 19 2026 20:04:44 GMT+0000 (Coordinated Universal Time)

1 17070U 86088A 26170.57540900 .00000076 00000+0 68254-4 0 9992 2 17070 89.6182 176.2886 0037069 270.9927 203.8692 13.75288501985743
UTC large
Height (km)
Speed (km/s)
/
Latitude / Longitude
Inclination (degrees)
Orbital Period (minutes)
Azimuth
Elevation
Range (km)
Doppler Factor

Next 0 passes for location: London (51.5072 / 0.1276)

Sorry there are no passes over London.
POLAR BEAR